Starlink 35039

operational
NORAD ID: 65451 Int'l Des: 2025-194 Owner: SPXS Country: US Constellation: starlink
LEOCIRCULARRETROGRADESSO

About Starlink 35039

Description loading...

Live Position

Loading 3D Globe...

Upcoming Passes

Altitude History

Altitude vs Time

uPlot chart will show altitude changes over time

Two-Line Element Set

1 65451U 25194T 26063.14474568 .00009423 00000-0 65600-3 0 9996
2 65451 97.6009 278.9318 0001641 73.4247 286.7160 15.05671464 28819
Epoch: Mar 4, 2026 • Age: 19 hours

Current Status

Altitude 574.5 km
Velocity 7.57 km/s
Sub-Earth Point -62.35°S, 1.23°W
Launch Date Sep 3, 2025
Age 0.4 years
Type internet

Technical Details

Classification Payload
Mass 575.00 kg
Dry Mass 530.00 kg
Total Mass 575.00 kg
Length 0.30 m
Diameter 4.10 m
Span 29.00 m
Shape Box + pan
Manufacturer SPXS
Bus Type Starlink V2MO
Phase Status In Orbit
Owner/State SPXS/US

Large Constellations

Loading constellations...